Location: Ocean City
(38.3360°N, 75.0850°W)
Time: 00:34:21
(UTC-04:00)

MOZHAYETS 4 - Pass Details

Date: 25 May 2019
Orbit: 661 x 681 km, 98.0° (Epoch: 24 June)

Event Time Altitude Azimuth Distance (km) Brightness Sun altitude
Exits shadow 03:00:22 54° 137° (SE) 821 8.0 -24.1°
Maximum altitude 03:01:19 72° 75° (ENE) 713 7.9 -24.0°
Drops below altitude 10° 03:05:54 10° 352° (N) 2,109 10.9 -23.5°
Sets 03:08:08 0° 350° (N) 3,024 11.8 -23.3°
